[[{"header":{"parameterUnit":"m.s-1","parameterCategory":1,"la1":30.2991,"la2":30.254,"lo1":-89.0895,"lo2":-89.0444,"dy":0.0017,"dx":0.0017,"nx":28,"ny":28,"refTime":"2024-02-24T09:00:00:Z","depth":0,"parameterNumber":2,"parameterNumberName":"U-component_of_WINDS"},"data":[0,0,0,0,0,0,0,0,0,0,0,0,0,0,0,0,0,0,0,0,0,0,0,0,0,0,0,0,0,0,0,0,0,0,0,0,0,0,0,0,0,0,0,0,0,0,0,0,0,0,0,0,0,0,0,0,0,0,-1.3819,-1.3819,0,-1.3794,-1.3793,-1.3793,-1.3767,-1.3767,-1.3767,-1.3766,-1.374,-1.3739,-1.3739,0,0,0,0,0,0,0,0,0,0,0,0,0,-1.3847,-1.3846,-1.3819,-1.3819,-1.3819,-1.3794,-1.3793,-1.3793,-1.3767,-1.3767,-1.3767,-1.3766,-1.374,-1.3739,-1.3739,0,0,0,0,0,0,0,0,0,0,0,0,0,-1.3829,-1.3846,-1.3819,-1.3803,-1.3801,-1.3794,-1.3793,-1.3793,-1.3768,-1.3767,-1.3767,-1.3766,-1.374,-1.3739,-1.3739,-1.3745,0,0,-1.3737,-1.3737,0,0,0,0,0,0,0,0,-1.383,-1.3828,-1.3806,-1.3804,-1.3802,-1.3783,-1.3793,-1.3777,-1.3768,-1.378,-1.3766,-1.3766,-1.3754,-1.3753,-1.3749,-1.3744,-1.3743,-1.3737,-1.3736,-1.3736,-1.3736,0,0,0,0,0,0,0,-1.3831,-1.3829,-1.3809,-1.3805,-1.3803,-1.3797,-1.3794,-1.379,-1.377,-1.3779,-1.3777,-1.3775,-1.3753,-1.375,-1.3748,-1.3742,-1.3737,-1.3736,-1.3736,-1.3736,-1.3742,-1.3742,0,0,0,0,0,0,-1.3835,-1.383,-1.381,-1.3808,-1.3815,-1.3797,-1.3794,-1.379,-1.377,-1.3767,-1.3775,-1.3774,-1.3751,-1.3749,-1.3747,-1.3753,-1.3736,-1.3736,-1.3735,-1.3741,-1.3742,-1.3743,0,0,0,0,0,0,-1.3836,-1.3834,-1.3811,-1.3819,-1.3815,-1.3797,-1.3793,-1.3789,-1.3786,-1.3767,-1.3764,-1.3775,-1.375,-1.3748,-1.3746,-1.3752,-1.3735,-1.3735,-1.3741,-1.3742,-1.3742,-1.3765,0,0,0,0,0,0,-1.3837,-1.3834,-1.3836,-1.3819,-1.3815,-1.381,-1.3793,-1.3789,-1.3785,-1.3782,-1.3766,-1.3763,-1.375,-1.3747,-1.3745,-1.3751,-1.3734,-1.374,-1.3741,-1.3742,-1.3764,-1.3767,-1.3769,0,0,0,0,0,-1.3838,-1.3843,-1.3836,-1.3834,-1.3817,-1.381,-1.3808,-1.3793,-1.3785,-1.3787,-1.3776,-1.3763,-1.3752,-1.3747,-1.3745,-1.375,-1.374,-1.3741,-1.3742,-1.3763,-1.3766,-1.3769,0,0,0,0,0,0,-1.3861,-1.3841,-1.3832,-1.3833,-1.3823,-1.3806,-1.3808,-1.3797,-1.379,-1.3788,-1.377,-1.3766,-1.3767,-1.3758,-1.3753,-1.3756,-1.3744,-1.3745,-1.3761,-1.3764,-1.3767,-1.3768,-1.3734,0,0,0,0,0,-1.3866,-1.3862,-1.3845,-1.3846,-1.3842,-1.3826,-1.3823,-1.3812,-1.3802,-1.3798,-1.3786,-1.3776,-1.3771,-1.3767,-1.3761,-1.3764,-1.376,-1.3766,-1.3769,-1.3771,-1.3772,-1.3773,-1.3776,-1.3747,-1.3747,-1.3747,0,0,-1.3876,-1.3865,-1.3863,-1.3851,-1.3842,-1.3839,-1.3823,-1.382,-1.3817,-1.3797,-1.3794,-1.3786,-1.3774,-1.3775,-1.3774,-1.3768,-1.3779,-1.3773,-1.3775,-1.3774,-1.3774,-1.3777,-1.378,-1.3747,-1.3747,-1.3747,0,0,-1.3893,-1.3884,-1.3884,-1.3877,-1.3865,-1.3854,-1.3855,-1.3839,-1.3833,-1.383,-1.3815,-1.3812,-1.3803,-1.3795,-1.379,-1.3806,-1.3794,-1.3805,-1.3818,-1.3819,-1.3821,-1.3823,-1.3828,-1.383,-1.3805,-1.3805,-1.3805,0,-1.3907,-1.3901,-1.3886,-1.3884,-1.3879,-1.3862,-1.3862,-1.3856,-1.3842,-1.3839,-1.3833,-1.3821,-1.3812,-1.3811,-1.3815,-1.3811,-1.3811,-1.3805,-1.3822,-1.3824,-1.3826,-1.383,-1.3832,-1.3807,-1.3807,-1.3806,-1.3806,0,-1.3918,-1.3915,-1.3917,-1.3904,-1.39,-1.3899,-1.3885,-1.3882,-1.3873,-1.3863,-1.3861,-1.385,-1.3841,-1.3841,-1.3831,-1.3838,-1.3835,-1.3826,-1.3813,-1.383,-1.3834,-1.3836,-1.3808,-1.3808,-1.3808,-1.3807,0,0,-1.3946,-1.3927,-1.3928,-1.3923,-1.3909,-1.3906,-1.3905,-1.3897,-1.3895,-1.3887,-1.3886,-1.3879,-1.3871,-1.3865,-1.3855,-1.3856,-1.387,-1.3847,-1.3847,-1.3851,-1.3876,-1.3882,-1.3885,-1.3863,-1.3863,-1.3863,-1.3877,0,-1.396,-1.3957,-1.3944,-1.3945,-1.3941,-1.3926,-1.3925,-1.3917,-1.3909,-1.3905,-1.3895,-1.3891,-1.3881,-1.3877,-1.3878,-1.3868,-1.3874,-1.3867,-1.3861,-1.386,-1.3862,-1.3887,-1.3893,-1.3906,-1.3879,-1.3879,-1.3879,0,-1.3975,-1.3968,-1.3968,-1.3955,-1.3953,-1.3953,-1.3945,-1.3941,-1.3932,-1.3926,-1.3921,-1.391,-1.3908,-1.3898,-1.3896,-1.3891,-1.3889,-1.3883,-1.3884,-1.3881,-1.387,-1.3884,-1.391,-1.3912,-1.3882,-1.3881,-1.3881,0,-1.3994,-1.3985,-1.3984,-1.398,-1.3966,-1.3966,-1.3959,-1.395,-1.3946,-1.394,-1.3937,-1.3931,-1.3927,-1.3922,-1.391,-1.3904,-1.3909,-1.3898,-1.3904,-1.3904,-1.3904,-1.3904,-1.3929,-1.3905,-1.3904,-1.3904,-1.3904,0,-1.401,-1.401,-1.3993,-1.3992,-1.3993,-1.3979,-1.398,-1.3973,-1.3965,-1.3962,-1.395,-1.3948,-1.3932,-1.3929,-1.392,-1.3919,-1.3918,-1.3913,-1.391,-1.3913,-1.3914,-1.391,-1.3908,-1.3905,-1.3905,-1.3905,-1.3905,0,-1.4031,-1.4019,-1.4017,-1.4004,-1.4001,-1.4002,-1.399,-1.3989,-1.3981,-1.3978,-1.3977,-1.3964,-1.3959,-1.3947,-1.394,-1.3934,-1.3935,-1.3931,-1.3938,-1.3936,-1.3942,-1.3942,-1.3965,-1.3967,-1.3942,-1.3943,-1.3943,0,-1.4041,-1.4041,-1.4028,-1.4025,-1.402,-1.4016,-1.4013,-1.4,-1.3997,-1.3987,-1.3988,-1.3982,-1.3977,-1.3971,-1.3961,-1.3955,-1.395,-1.3959,-1.3949,-1.3952,-1.3949,-1.3949,-1.3948,-1.396,-1.396,-1.3961,-1.3961,0,-1.4059,-1.4054,-1.4049,-1.4043,-1.4039,-1.4033,-1.4027,-1.4026,-1.4012,-1.4009,-1.4005,-1.4001,-1.3994,-1.3988,-1.3982,-1.3976,-1.3966,-1.3964,-1.3965,-1.3967,-1.3971,-1.3969,-1.3943,-1.3963,-1.3963,-1.3963,-1.3963,-1.3963,-1.4074,-1.4074,-1.4065,-1.406,-1.4054,-1.4049,-1.4048,-1.4039,-1.4035,-1.4028,-1.4022,-1.4018,-1.401,-1.4,-1.3995,-1.3992,-1.3986,-1.3988,-1.3988,-1.3988,-1.3989,-1.3973,-1.399,-1.399,-1.399,-1.399,-1.399,0,-1.4092,-1.4086,-1.4082,-1.4073,-1.407,-1.4062,-1.4055,-1.4053,-1.4049,-1.4043,-1.4038,-1.4034,-1.4029,-1.4019,-1.4014,-1.4013,-1.4009,-1.4012,-1.4011,-1.401,-1.3995,-1.3994,-1.4016,-1.4016,-1.4016,-1.4016,-1.4016,-1.4016,-1.41,-1.4099,-1.4093,-1.4089,-1.4083,-1.4079,-1.4076,-1.4071,-1.4065,-1.4061,-1.4057,-1.4051,-1.4043,-1.4037,-1.4033,-1.403,-1.4028,-1.4033,-1.4029,-1.4014,-1.4011,-1.4009,-1.4008,-1.4033,-1.4033,-1.4044,-1.4044,-1.4044]},{"header":{"parameterUnit":"m.s-1","parameterCategory":1,"la1":30.2991,"la2":30.254,"lo1":-89.0895,"lo2":-89.0444,"dy":0.0017,"dx":0.0017,"nx":28,"ny":28,"refTime":"2024-02-24T09:00:00:Z","depth":0,"parameterNumber":3,"parameterNumberName":"V-component_of_WINDS"},"data":[0,0,0,0,0,0,0,0,0,0,0,0,0,0,0,0,0,0,0,0,0,0,0,0,0,0,0,0,0,0,0,0,0,0,0,0,0,0,0,0,0,0,0,0,0,0,0,0,0,0,0,0,0,0,0,0,0,0,3.5019,3.502,0,3.5029,3.5029,3.5029,3.5066,3.5067,3.5068,3.5068,3.5074,3.5073,3.5073,0,0,0,0,0,0,0,0,0,0,0,0,0,3.5032,3.5032,3.5019,3.502,3.502,3.5029,3.5029,3.5029,3.5066,3.5067,3.5068,3.5069,3.5074,3.5073,3.5073,0,0,0,0,0,0,0,0,0,0,0,0,0,3.5032,3.5031,3.5019,3.5039,3.5041,3.5029,3.5029,3.5029,3.5066,3.5067,3.5068,3.5069,3.5074,3.5073,3.5072,3.504,0,0,3.5069,3.5069,0,0,0,0,0,0,0,0,3.5032,3.5032,3.5036,3.5038,3.504,3.5048,3.5035,3.5032,3.5065,3.5056,3.5068,3.507,3.5064,3.5064,3.5062,3.504,3.5041,3.5069,3.5069,3.5068,3.5068,0,0,0,0,0,0,0,3.5032,3.5031,3.5023,3.5036,3.5039,3.5047,3.5049,3.5035,3.5052,3.5057,3.506,3.5061,3.5065,3.5063,3.5063,3.5041,3.5069,3.5068,3.5068,3.5067,3.4995,3.4994,0,0,0,0,0,0,3.503,3.5031,3.5023,3.5023,3.5039,3.5046,3.5047,3.5044,3.5053,3.5055,3.5059,3.5062,3.5064,3.5064,3.5063,3.5028,3.5068,3.5067,3.5067,3.4996,3.4995,3.4993,0,0,0,0,0,0,3.503,3.5029,3.5022,3.5028,3.5028,3.5044,3.504,3.5043,3.5042,3.5055,3.5058,3.5055,3.5065,3.5065,3.5046,3.5028,3.5067,3.5066,3.4998,3.4996,3.4994,3.4956,0,0,0,0,0,0,3.503,3.5028,3.5017,3.5028,3.5027,3.5006,3.5039,3.5042,3.504,3.5044,3.5051,3.5053,3.5066,3.5048,3.5045,3.5028,3.5065,3.5,3.4997,3.4995,3.4958,3.4952,3.4947,0,0,0,0,0,3.503,3.5004,3.5016,3.5015,3.5013,3.5005,3.5005,3.5021,3.5039,3.5027,3.5036,3.5053,3.5031,3.5046,3.5043,3.5025,3.5001,3.4998,3.4995,3.4961,3.4954,3.4947,0,0,0,0,0,0,3.4988,3.5006,3.5019,3.4996,3.4999,3.5011,3.4997,3.5013,3.501,3.5013,3.5033,3.5034,3.5014,3.5017,3.5034,3.4995,3.5019,3.5015,3.4994,3.4987,3.4982,3.4981,3.5064,0,0,0,0,0,3.4977,3.4969,3.4984,3.4962,3.4963,3.498,3.4976,3.499,3.4993,3.4994,3.5001,3.5003,3.4997,3.4992,3.4987,3.4959,3.4962,3.4946,3.494,3.4935,3.4932,3.492,3.4913,3.4983,3.4984,3.4984,0,0,3.4952,3.4961,3.4954,3.4954,3.4958,3.495,3.498,3.4969,3.4964,3.4992,3.4976,3.4981,3.4985,3.4963,3.4953,3.4965,3.4914,3.4932,3.4928,3.4927,3.4916,3.491,3.4904,3.4981,3.4982,3.4982,0,0,3.4903,3.4908,3.4892,3.4896,3.4902,3.4914,3.491,3.492,3.4925,3.491,3.4932,3.4925,3.4913,3.4915,3.4915,3.4869,3.4885,3.4866,3.4837,3.4825,3.482,3.4815,3.48,3.4794,3.4863,3.4863,3.4863,0,3.4871,3.4861,3.4881,3.487,3.4869,3.4897,3.488,3.4882,3.4886,3.4885,3.4899,3.4886,3.489,3.487,3.4859,3.4857,3.4854,3.4866,3.4819,3.4815,3.481,3.4796,3.4791,3.4861,3.4861,3.4861,3.4862,0,3.4822,3.4814,3.48,3.4805,3.4803,3.4789,3.4807,3.4802,3.4816,3.4826,3.4811,3.4817,3.4814,3.481,3.4822,3.4792,3.48,3.4816,3.484,3.4801,3.4789,3.4783,3.4858,3.4858,3.4859,3.486,0,0,3.4746,3.4764,3.4759,3.4763,3.4773,3.4767,3.4754,3.4754,3.475,3.4752,3.4742,3.4733,3.4749,3.4748,3.4761,3.475,3.4716,3.4768,3.4768,3.4759,3.4685,3.4673,3.4667,3.4727,3.4726,3.4725,3.4685,0,3.4701,3.4682,3.4701,3.4678,3.4672,3.4698,3.4688,3.4693,3.4702,3.4698,3.4707,3.4701,3.4722,3.4722,3.4712,3.4722,3.4701,3.4725,3.4718,3.4718,3.4718,3.466,3.4647,3.4609,3.468,3.4679,3.4679,0,3.4645,3.4647,3.4624,3.4638,3.4636,3.4626,3.4628,3.4624,3.463,3.4638,3.4638,3.4655,3.4644,3.4667,3.4652,3.4668,3.4667,3.4671,3.467,3.467,3.4696,3.466,3.4597,3.4592,3.4671,3.4671,3.4672,0,3.4594,3.459,3.4577,3.4579,3.4594,3.4587,3.4593,3.4601,3.46,3.4601,3.4601,3.46,3.46,3.4599,3.4615,3.463,3.4599,3.4623,3.4605,3.4605,3.4597,3.4598,3.4535,3.4594,3.4595,3.4595,3.4595,0,3.4542,3.4527,3.4555,3.4546,3.4531,3.4553,3.4537,3.4545,3.4552,3.4546,3.4568,3.4562,3.4583,3.4579,3.4591,3.4578,3.4577,3.4583,3.4587,3.4582,3.4581,3.4581,3.4585,3.4593,3.4593,3.4594,3.4594,0,3.4482,3.45,3.4488,3.4504,3.4508,3.4496,3.451,3.4503,3.4514,3.4506,3.4505,3.4523,3.4519,3.4536,3.4534,3.4542,3.4523,3.453,3.4521,3.4524,3.4506,3.4508,3.4441,3.4434,3.4498,3.4497,3.4496,0,3.4448,3.4438,3.4454,3.4453,3.4458,3.4455,3.4455,3.4476,3.4475,3.4483,3.4475,3.4473,3.4474,3.4467,3.4479,3.4478,3.4486,3.4463,3.4486,3.4482,3.4488,3.4489,3.4489,3.4458,3.4458,3.4457,3.4456,0,3.4387,3.4397,3.4397,3.44,3.44,3.4404,3.4408,3.4405,3.4428,3.4426,3.4424,3.4424,3.4424,3.4422,3.4425,3.443,3.4447,3.4449,3.4445,3.4441,3.4437,3.444,3.451,3.4451,3.4451,3.4452,3.4452,3.4452,3.434,3.4334,3.4345,3.4344,3.435,3.4355,3.435,3.4362,3.4361,3.4364,3.4376,3.4372,3.438,3.4385,3.4389,3.4386,3.4397,3.439,3.4389,3.4388,3.4385,3.4437,3.4386,3.4386,3.4386,3.4386,3.4387,0,3.4282,3.4291,3.429,3.4297,3.4297,3.4315,3.4321,3.432,3.4317,3.4323,3.4324,3.4322,3.4321,3.4334,3.4335,3.4331,3.4339,3.433,3.4331,3.4333,3.4375,3.4379,3.4324,3.4324,3.4324,3.4324,3.4324,3.4324,3.4251,3.4241,3.4253,3.4246,3.4255,3.4253,3.4255,3.4259,3.4265,3.4263,3.4263,3.4272,3.4282,3.4284,3.4285,3.4288,3.4288,3.4277,3.4284,3.4323,3.4329,3.4335,3.4339,3.4277,3.4277,3.4242,3.4242,3.4242]}]]